Tracking 19575 objects as of 18-Feb-2019
HD Live streaming from Space Station
objects crossing your sky now

EDUSAT

Track EDUSAT now!
10-day predictions
EDUSAT is classified as:


NORAD ID: 37788
Int'l Code: 2011-044A
Perigee: 639.2 km
Apogee: 691.5 km
Inclination: 98.3 °
Period: 97.9 minutes
Semi major axis: 7036 km
RCS: 0.1421 m2 (medium)
Launch date: August 17, 2011
Source: Italy (IT)
Launch site: Orenburg, Russia (OREN)

EduSat is a microsatellite built by the University of Rome.
aabbcc
Your satellite tracking list
Your tracking list is empty




NASA's NSSDC Master Catalog

Two Line Element Set (TLE):
1 37788U 11044A   19048.93770994 +.00000059 +00000-0 +18457-4 0  9996
2 37788 098.3205 187.9254 0037165 315.6071 156.4489 14.70886001402663
Source of the keplerian elements: AFSPC